[[{"header":{"parameterUnit":"m.s-1","parameterCategory":1,"la1":30.2991,"la2":30.254,"lo1":-89.0895,"lo2":-89.0444,"dy":0.0017,"dx":0.0017,"nx":28,"ny":28,"refTime":"2025-11-24T09:00:00:Z","depth":0,"parameterNumber":2,"parameterNumberName":"U-component_of_WINDS"},"data":[0,0,0,0,0,0,0,0,0,0,0,0,0,0,0,0,0,0,0,0,0,0,0,0,0,0,0,0,0,0,0,0,0,0,0,0,0,0,0,0,0,0,0,0,0,0,0,0,0,0,0,0,0,0,0,0,0,0,-3.4282,-3.4282,0,-3.4274,-3.4274,-3.4274,-3.424,-3.424,-3.4239,-3.4238,-3.423,-3.423,-3.4231,0,0,0,0,0,0,0,0,0,0,0,0,0,-3.427,-3.427,-3.4283,-3.4282,-3.4282,-3.4274,-3.4274,-3.4274,-3.424,-3.4239,-3.4239,-3.4238,-3.423,-3.423,-3.4231,0,0,0,0,0,0,0,0,0,0,0,0,0,-3.427,-3.427,-3.4283,-3.4265,-3.4263,-3.4274,-3.4274,-3.4274,-3.4241,-3.4239,-3.4238,-3.4237,-3.4229,-3.423,-3.4231,-3.4259,0,0,-3.4233,-3.4234,0,0,0,0,0,0,0,0,-3.427,-3.427,-3.4267,-3.4266,-3.4264,-3.4257,-3.4267,-3.4269,-3.4241,-3.4249,-3.4238,-3.4237,-3.424,-3.424,-3.4241,-3.4259,-3.4259,-3.4233,-3.4234,-3.4234,-3.4234,0,0,0,0,0,0,0,-3.427,-3.4271,-3.4279,-3.4267,-3.4265,-3.4257,-3.4256,-3.4267,-3.4251,-3.4248,-3.4246,-3.4245,-3.4239,-3.424,-3.424,-3.4259,-3.4233,-3.4234,-3.4235,-3.4235,-3.4299,-3.4301,0,0,0,0,0,0,-3.4272,-3.4271,-3.428,-3.4279,-3.4264,-3.4258,-3.4257,-3.4261,-3.4251,-3.4248,-3.4246,-3.4244,-3.4239,-3.424,-3.424,-3.4271,-3.4234,-3.4235,-3.4235,-3.4298,-3.43,-3.4301,0,0,0,0,0,0,-3.4272,-3.4273,-3.428,-3.4274,-3.4274,-3.426,-3.4264,-3.4261,-3.4262,-3.425,-3.4247,-3.425,-3.4238,-3.4239,-3.4255,-3.4271,-3.4235,-3.4236,-3.4297,-3.4299,-3.43,-3.4335,0,0,0,0,0,0,-3.4272,-3.4274,-3.4284,-3.4275,-3.4275,-3.4294,-3.4265,-3.4262,-3.4264,-3.426,-3.4253,-3.425,-3.4238,-3.4254,-3.4255,-3.4271,-3.4237,-3.4295,-3.4298,-3.43,-3.4332,-3.4338,-3.4343,0,0,0,0,0,-3.4272,-3.4294,-3.4284,-3.4286,-3.4287,-3.4295,-3.4295,-3.428,-3.4265,-3.4275,-3.4267,-3.425,-3.427,-3.4256,-3.4257,-3.4273,-3.4294,-3.4297,-3.43,-3.433,-3.4337,-3.4342,0,0,0,0,0,0,-3.4305,-3.4292,-3.4282,-3.4302,-3.43,-3.429,-3.4302,-3.4288,-3.429,-3.4287,-3.4269,-3.4267,-3.4285,-3.4282,-3.4266,-3.43,-3.4279,-3.4282,-3.4301,-3.4308,-3.4313,-3.4312,-3.4237,0,0,0,0,0,-3.4315,-3.4322,-3.4311,-3.433,-3.433,-3.4316,-3.4319,-3.4308,-3.4305,-3.4304,-3.4297,-3.4295,-3.4301,-3.4305,-3.4309,-3.4333,-3.433,-3.4345,-3.435,-3.4354,-3.4356,-3.4368,-3.4374,-3.431,-3.431,-3.431,0,0,-3.4334,-3.4329,-3.4334,-3.4336,-3.4333,-3.4341,-3.4315,-3.4325,-3.4331,-3.4306,-3.4319,-3.4315,-3.4312,-3.4331,-3.434,-3.4329,-3.4374,-3.4358,-3.4362,-3.4361,-3.4371,-3.4377,-3.4383,-3.4312,-3.4312,-3.4312,0,0,-3.4374,-3.4371,-3.4386,-3.4384,-3.438,-3.4372,-3.4376,-3.4368,-3.4364,-3.4378,-3.4359,-3.4366,-3.4376,-3.4374,-3.4375,-3.4416,-3.44,-3.4419,-3.4444,-3.4456,-3.4461,-3.4465,-3.4478,-3.4483,-3.4422,-3.4422,-3.4422,0,-3.4398,-3.441,-3.4395,-3.4406,-3.4407,-3.4386,-3.4401,-3.44,-3.4398,-3.4399,-3.4388,-3.44,-3.4396,-3.4415,-3.4425,-3.4427,-3.443,-3.4418,-3.4461,-3.4465,-3.4469,-3.4481,-3.4486,-3.4424,-3.4423,-3.4423,-3.4423,0,-3.444,-3.4448,-3.4461,-3.4459,-3.4462,-3.4475,-3.4463,-3.4468,-3.4458,-3.445,-3.4465,-3.4461,-3.4463,-3.4468,-3.4458,-3.4485,-3.4478,-3.4464,-3.4442,-3.4477,-3.4488,-3.4493,-3.4427,-3.4426,-3.4425,-3.4425,0,0,-3.4496,-3.4488,-3.4493,-3.4492,-3.4488,-3.4494,-3.4507,-3.451,-3.4514,-3.4514,-3.4523,-3.4534,-3.4521,-3.4521,-3.4511,-3.4522,-3.4553,-3.4506,-3.4506,-3.4513,-3.4582,-3.459,-3.4596,-3.4544,-3.4545,-3.4546,-3.4581,0,-3.4532,-3.4552,-3.454,-3.4562,-3.4569,-3.455,-3.4561,-3.456,-3.4554,-3.456,-3.4554,-3.456,-3.4544,-3.4544,-3.4554,-3.4547,-3.4566,-3.4545,-3.4551,-3.4552,-3.4549,-3.4602,-3.461,-3.4644,-3.4585,-3.4586,-3.4587,0,-3.4575,-3.4578,-3.46,-3.4595,-3.4597,-3.4607,-3.4609,-3.4615,-3.4614,-3.4609,-3.4611,-3.4599,-3.4611,-3.4591,-3.4607,-3.4593,-3.4596,-3.4593,-3.4594,-3.4591,-3.4569,-3.4598,-3.4654,-3.4658,-3.4594,-3.4593,-3.4593,0,-3.4611,-3.4621,-3.4635,-3.4635,-3.463,-3.4637,-3.4636,-3.4633,-3.4636,-3.4638,-3.464,-3.4644,-3.4646,-3.4649,-3.4639,-3.4626,-3.4656,-3.4635,-3.4651,-3.4651,-3.4655,-3.4654,-3.4709,-3.4662,-3.4662,-3.4662,-3.4662,0,-3.4651,-3.4664,-3.4651,-3.4659,-3.4675,-3.4662,-3.4678,-3.4674,-3.4673,-3.468,-3.4666,-3.4673,-3.466,-3.4666,-3.4659,-3.4672,-3.4674,-3.467,-3.4667,-3.4669,-3.4669,-3.4668,-3.4664,-3.4663,-3.4663,-3.4662,-3.4662,0,-3.4692,-3.4684,-3.4698,-3.4693,-3.4692,-3.4703,-3.4698,-3.4706,-3.4701,-3.471,-3.4712,-3.4703,-3.471,-3.4701,-3.4707,-3.4701,-3.472,-3.4715,-3.472,-3.4717,-3.4732,-3.473,-3.4786,-3.4792,-3.4743,-3.4744,-3.4744,0,-3.4716,-3.4726,-3.4722,-3.4726,-3.4726,-3.4733,-3.4735,-3.4725,-3.4728,-3.4729,-3.4736,-3.4742,-3.4745,-3.4757,-3.4751,-3.4756,-3.4749,-3.4769,-3.475,-3.4752,-3.4747,-3.4745,-3.4746,-3.4772,-3.4772,-3.4773,-3.4773,0,-3.4759,-3.4755,-3.4759,-3.4763,-3.4767,-3.477,-3.4771,-3.4776,-3.4764,-3.477,-3.4776,-3.4779,-3.4786,-3.4791,-3.4794,-3.4793,-3.4781,-3.478,-3.4783,-3.4784,-3.4786,-3.4783,-3.4727,-3.4778,-3.4777,-3.4777,-3.4777,-3.4777,-3.479,-3.4799,-3.4797,-3.4803,-3.4804,-3.4805,-3.4812,-3.4808,-3.4814,-3.4818,-3.4812,-3.482,-3.482,-3.4823,-3.4823,-3.4829,-3.4821,-3.4826,-3.4827,-3.4828,-3.4829,-3.4787,-3.483,-3.483,-3.483,-3.483,-3.483,0,-3.483,-3.4829,-3.4835,-3.4838,-3.4843,-3.4833,-3.4834,-3.4839,-3.4846,-3.4847,-3.4852,-3.4859,-3.4865,-3.4861,-3.4865,-3.4871,-3.4866,-3.4873,-3.4871,-3.487,-3.4837,-3.4833,-3.4877,-3.4877,-3.4877,-3.4877,-3.4877,-3.4877,-3.4852,-3.4864,-3.4861,-3.4874,-3.4873,-3.488,-3.4882,-3.4884,-3.4884,-3.4894,-3.4899,-3.4896,-3.4895,-3.49,-3.4904,-3.4903,-3.4904,-3.4913,-3.4909,-3.4878,-3.4873,-3.4868,-3.4864,-3.4914,-3.4914,-3.4941,-3.4941,-3.4941]},{"header":{"parameterUnit":"m.s-1","parameterCategory":1,"la1":30.2991,"la2":30.254,"lo1":-89.0895,"lo2":-89.0444,"dy":0.0017,"dx":0.0017,"nx":28,"ny":28,"refTime":"2025-11-24T09:00:00:Z","depth":0,"parameterNumber":3,"parameterNumberName":"V-component_of_WINDS"},"data":[0,0,0,0,0,0,0,0,0,0,0,0,0,0,0,0,0,0,0,0,0,0,0,0,0,0,0,0,0,0,0,0,0,0,0,0,0,0,0,0,0,0,0,0,0,0,0,0,0,0,0,0,0,0,0,0,0,0,4.0583,4.0585,0,4.0698,4.0699,4.07,4.0682,4.0681,4.0679,4.0677,4.0788,4.0793,4.0798,0,0,0,0,0,0,0,0,0,0,0,0,0,4.0347,4.0352,4.0583,4.0585,4.0586,4.0697,4.0699,4.0701,4.0683,4.068,4.0678,4.0676,4.0787,4.0792,4.0798,0,0,0,0,0,0,0,0,0,0,0,0,0,4.0454,4.0353,4.0583,4.0591,4.0593,4.0697,4.0699,4.0701,4.0683,4.068,4.0677,4.0675,4.0785,4.0792,4.0799,4.0901,0,0,4.0821,4.0824,0,0,0,0,0,0,0,0,4.0448,4.0463,4.0588,4.059,4.0593,4.0673,4.0657,4.0768,4.0684,4.0649,4.0677,4.0673,4.0752,4.0762,4.0789,4.0906,4.0911,4.0821,4.0826,4.0829,4.0831,0,0,0,0,0,0,0,4.0441,4.0458,4.0628,4.059,4.0593,4.0588,4.06,4.0678,4.0715,4.0652,4.0651,4.0665,4.0753,4.0782,4.0792,4.0913,4.0821,4.0828,4.0832,4.0835,4.1124,4.1127,0,0,0,0,0,0,4.0432,4.0452,4.0625,4.0632,4.0512,4.0595,4.0608,4.065,4.0714,4.0721,4.0667,4.0663,4.0772,4.0783,4.0796,4.0923,4.0829,4.0836,4.084,4.1121,4.1125,4.1128,0,0,0,0,0,0,4.0427,4.0447,4.062,4.0542,4.0563,4.0602,4.0649,4.0654,4.0684,4.0726,4.0732,4.0691,4.077,4.0785,4.0876,4.0926,4.0839,4.0845,4.1117,4.1122,4.1126,4.1176,0,0,0,0,0,0,4.042,4.0446,4.0485,4.0543,4.0568,4.07,4.0652,4.0658,4.0697,4.0693,4.075,4.0756,4.0769,4.0866,4.0884,4.0934,4.0851,4.1112,4.1119,4.1125,4.117,4.1182,4.1192,0,0,0,0,0,4.0412,4.0492,4.0487,4.0508,4.0618,4.0703,4.0717,4.0731,4.0701,4.0741,4.0769,4.0755,4.0918,4.0875,4.0895,4.0949,4.1109,4.1117,4.1124,4.1165,4.1179,4.1192,0,0,0,0,0,0,4.0436,4.05,4.0495,4.0597,4.0645,4.07,4.075,4.0745,4.0801,4.0795,4.0809,4.0822,4.0915,4.094,4.0892,4.1053,4.1009,4.1021,4.1033,4.1047,4.1058,4.105,4.0857,0,0,0,0,0,4.0454,4.0519,4.057,4.0655,4.068,4.0711,4.0748,4.0756,4.0805,4.0825,4.0859,4.0906,4.0969,4.1009,4.1068,4.1173,4.1187,4.122,4.1231,4.124,4.1251,4.1312,4.1328,4.1153,4.1153,4.1153,0,0,4.049,4.0533,4.0572,4.0661,4.0699,4.0766,4.0728,4.0799,4.0849,4.0835,4.0924,4.0951,4.1005,4.1105,4.115,4.1129,4.1302,4.125,4.1257,4.1262,4.1321,4.1338,4.1352,4.1158,4.1158,4.1157,0,0,4.0591,4.0629,4.0706,4.0747,4.0806,4.0827,4.0846,4.0903,4.0921,4.1012,4.1004,4.1062,4.1169,4.1209,4.1243,4.1364,4.1354,4.1383,4.1441,4.15,4.1514,4.1526,4.1572,4.1588,4.1393,4.1393,4.1393,0,4.0628,4.073,4.0746,4.082,4.086,4.0854,4.0932,4.097,4.1045,4.1072,4.1048,4.1185,4.122,4.1331,4.1361,4.1388,4.1411,4.1376,4.1511,4.1524,4.1535,4.1579,4.1596,4.1396,4.1396,4.1395,4.1395,0,4.0774,4.0845,4.0899,4.0976,4.1022,4.1098,4.1125,4.117,4.1174,4.1198,4.1292,4.1335,4.1405,4.1431,4.1434,4.1544,4.1529,4.1508,4.1464,4.1555,4.1597,4.1613,4.1401,4.14,4.1399,4.1398,0,0,4.0891,4.098,4.1,4.1036,4.1103,4.1158,4.1234,4.1305,4.1345,4.1397,4.1462,4.1554,4.1537,4.1576,4.1584,4.1635,4.1733,4.1608,4.161,4.1632,4.1859,4.1876,4.1895,4.1726,4.1729,4.1732,4.1855,0,4.1001,4.1138,4.1156,4.1277,4.1344,4.1341,4.1408,4.1456,4.1482,4.1541,4.1568,4.1635,4.1605,4.1629,4.168,4.171,4.1778,4.1701,4.1787,4.179,4.1776,4.1916,4.1933,4.2047,4.1871,4.1874,4.1876,0,4.1146,4.1207,4.1336,4.1398,4.1427,4.1487,4.1556,4.1613,4.1668,4.1683,4.1729,4.1732,4.1811,4.1764,4.1874,4.1821,4.1858,4.1878,4.1883,4.1892,4.1839,4.1931,4.2084,4.2102,4.1901,4.1899,4.1897,0,4.1222,4.1336,4.1429,4.146,4.1534,4.1577,4.1609,4.1662,4.1705,4.1765,4.1793,4.186,4.1897,4.1949,4.197,4.1933,4.208,4.2034,4.2095,4.2095,4.2126,4.2124,4.2289,4.2147,4.2147,4.2147,4.2146,0,4.1343,4.1423,4.1465,4.1522,4.1612,4.1633,4.1721,4.1751,4.18,4.1863,4.1863,4.1922,4.1945,4.2008,4.2024,4.2115,4.2131,4.2145,4.2149,4.2147,4.2145,4.2171,4.2165,4.2151,4.215,4.2149,4.2148,0,4.1444,4.1475,4.1577,4.164,4.1658,4.1722,4.1776,4.1832,4.1857,4.1938,4.1958,4.1997,4.2072,4.2098,4.2187,4.2198,4.2305,4.23,4.2287,4.2288,4.2349,4.2344,4.2537,4.2565,4.2403,4.2405,4.2406,0,4.1519,4.1581,4.1653,4.1697,4.1733,4.1802,4.1848,4.1871,4.1918,4.1988,4.2036,4.2111,4.2172,4.2291,4.2328,4.2397,4.2396,4.2459,4.2406,4.2403,4.24,4.2397,4.2404,4.2469,4.247,4.2472,4.2473,0,4.1652,4.1666,4.1732,4.1806,4.186,4.1918,4.1974,4.201,4.2041,4.2094,4.2172,4.222,4.2314,4.2389,4.2461,4.2493,4.2489,4.249,4.2508,4.2507,4.2498,4.2506,4.2316,4.2485,4.2484,4.2483,4.2482,4.2482,4.1744,4.1801,4.1862,4.1937,4.1982,4.2036,4.2093,4.2127,4.2194,4.2274,4.2283,4.2368,4.2425,4.2521,4.2557,4.2624,4.2606,4.2632,4.2639,4.2645,4.2652,4.2486,4.2636,4.2636,4.2636,4.2635,4.2635,0,4.1879,4.1919,4.1988,4.2069,4.2129,4.2122,4.2185,4.2235,4.231,4.2365,4.2427,4.2518,4.2592,4.2635,4.2709,4.2754,4.2755,4.2773,4.2771,4.2779,4.2661,4.264,4.2772,4.2772,4.2772,4.2772,4.2772,4.2772,4.1957,4.2053,4.2075,4.2195,4.2234,4.2319,4.2356,4.2406,4.245,4.2553,4.2616,4.2645,4.2696,4.2774,4.2842,4.2853,4.2881,4.2902,4.2911,4.2801,4.2787,4.2773,4.2753,4.2907,4.2907,4.3023,4.3024,4.3025]}]]